This is the latest recevied weather packets stored in our database for station/object N7BTW-13. If no packets are shown the sender has not sent any weather packets the latest 10 day(s).
| Time | Temp. | Humidity | Pressure | Rain* | Wind** | Luminosity | Snow |
|---|---|---|---|---|---|---|---|
| 1787890808 | 17.22° C | 78% | - | 0 mm | - | - | - |
| 1787890207 | 17.78° C | 76% | - | 0 mm | - | - | - |
| 1787889607 | 17.78° C | 74% | - | 0 mm | - | - | - |
| 1787889008 | 18.33° C | 72% | - | 0 mm | - | - | - |
| 1787888407 | 18.89° C | 70% | - | 0 mm | - | - | - |
| 1787887807 | 19.44° C | 68% | - | 0 mm | - | - | - |
| 1787887206 | 20° C | 65% | - | 0 mm | - | - | - |
| 1787886606 | 20.56° C | 63% | - | 0 mm | - | - | - |
| 1787886006 | 21.11° C | 63% | - | 0 mm | - | - | - |
| 1787885407 | 22.22° C | 60% | - | 0 mm | - | - | - |
| 1787884809 | 23.89° C | 56% | - | 0 mm | - | - | - |
| 1787884209 | 23.89° C | 57% | - | 0 mm | - | - | - |
| 1787883608 | 23.89° C | 57% | - | 0 mm | - | - | - |
| 1787883011 | 25° C | 55% | - | 0 mm | - | - | - |
| 1787882407 | 25.56° C | 54% | - | 0 mm | - | - | - |
| 1787881808 | 26.11° C | 54% | - | 0 mm | - | - | - |
| 1787881207 | 26.11° C | 53% | - | 0 mm | - | - | - |
| 1787880606 | 26.11° C | 53% | - | 0 mm | - | - | - |
| 1787880006 | 26.11° C | 54% | - | 0 mm | - | - | - |
| 1787879407 | 26.67° C | 53% | - | 0 mm | - | - | - |
| 1787878809 | 26.11° C | 52% | - | 0 mm | - | - | - |
| 1787878209 | 24.44° C | 55% | - | 0 mm | - | - | - |
| 1787877607 | 26.11° C | 51% | - | 0 mm | - | - | - |
| 1787877016 | 27.22° C | 48% | - | 0 mm | - | - | - |
| 1787876412 | 27.22° C | 48% | - | 0 mm | - | - | - |
* Rain latest hour (hover to see other rain measurements)
** Current wind speed in m/s (hover to see current wind gust speed)